Location: Eschentzwiller
(47.7125°N, 7.3981°E)
Time: 04:07:20
(UTC+00:00)

Cosmos 1943 Rocket - Pass Details

Date: 27 October 2020
Orbit: 813 x 842 km, 71.0° (Epoch: 01 December)

Event Time Altitude Azimuth Distance (km) Brightness Sun altitude
Rises 16:49:54 0° 255° (WSW) 3,350 8.3 -5.6°
Reaches altitude 10° 16:53:02 10° 273° (W) 2,416 6.1 -6.2°
Maximum altitude 16:56:56 19° 318° (NW) 1,847 4.4 -6.8°
Drops below altitude 10° 17:00:51 10° 4° (N) 2,416 4.4 -7.4°
Sets 17:04:00 0° 22° (NNE) 3,349 5.0 -8.0°
